Home   Weather   Madison   Past weeks

Flag for USA Past Weather in Madison, Wisconsin, USA — Yesterday and Last 2 Weeks

Now
22 °F

Scattered clouds.


Feels Like: 14 °F
Forecast: 17 / 24 °F
Wind: 6 mph from Northwest

Location: Dane County Regional-Truax Field

Current Time: Dec 9, 2016 at 5:08:19 pm

Latest Report: Dec 9, 2016 at 3:53 pm


Visibility: 10 mi

Pressure: 30.52 "Hg

Humidity: 55%

Dew Point: 8 °F

Location of MadisonLocation

Past Weather in Madison — Graph

°F

Madison Temperature Yesterday

Maximum temperature yesterday: 23 °F (at 3:53 pm)
Minimum temperature yesterday: 14 °F (at 5:53 am)
Average temperature yesterday: 19 °F

High & Low Weather Summary for the Past Weeks

 TemperatureHumidityPressure
High50 °F (Nov 28, 6:53 pm)100% (Dec 6, 2:53 am)30.57 "Hg (Dec 6, 2:53 am)
Low14 °F (Dec 8, 5:53 am)54% (Nov 29, 12:53 pm)29.08 "Hg (Nov 28, 8:53 pm)
Average33 °F81%29.97 "Hg
* Reported Nov 24 3:53 pm — Dec 9 3:53 pm, Madison, Weather by CustomWeather, © 2016

Note: Actual official high and low records may vary slightly from our data, if they occured in-between our weather recording intervals... More about our weather records

Advertising

Madison Weather History for the Previous 24 Hours

Scroll right to see more
 ConditionsComfort  
Time TempWeatherWind HumidityBarometerVisibility
3:53 pm
Fri, Dec 9
22 °FScattered clouds.6 mph55%30.52 "Hg10 mi
2:53 pm23 °FPassing clouds.5 mph55%30.52 "Hg10 mi
1:53 pm23 °FPassing clouds.8 mph57%30.51 "Hg10 mi
12:53 pm23 °FPassing clouds.8 mph60%30.53 "Hg10 mi
11:53 am22 °FPassing clouds.8 mph60%30.55 "Hg10 mi
10:53 am21 °FPassing clouds.10 mph62%30.56 "Hg10 mi
9:53 am20 °FPassing clouds.9 mph65%30.57 "Hg10 mi
8:53 am20 °FPassing clouds.12 mph68%30.56 "Hg10 mi
7:53 am20 °FPartly sunny.6 mph65%30.53 "Hg10 mi
6:53 am20 °FPassing clouds.9 mph65%30.52 "Hg10 mi
5:53 am20 °FPassing clouds.6 mph71%30.50 "Hg10 mi
4:53 am20 °FPassing clouds.5 mph74%30.49 "Hg10 mi
3:53 am20 °FClear.5 mph82%30.49 "Hg10 mi
2:53 am22 °FPassing clouds.8 mph78%30.47 "Hg10 mi
1:53 am22 °FOvercast.7 mph82%30.47 "Hg10 mi
12:53 am22 °FOvercast.8 mph82%30.46 "Hg10 mi
11:53 pm
Thu, Dec 8
22 °FOvercast.9 mph78%30.44 "Hg10 mi
10:53 pm21 °FPassing clouds.7 mph81%30.44 "Hg10 mi
9:53 pm20 °FPassing clouds.5 mph82%30.43 "Hg10 mi
8:53 pm21 °FPassing clouds.5 mph78%30.42 "Hg10 mi
7:53 pm22 °FLight snow. Passing clouds.7 mph75%30.42 "Hg9 mi
6:53 pm23 °FLight snow. Overcast.9 mph74%30.41 "Hg9 mi
5:53 pm23 °FLight snow. Overcast.7 mph72%30.40 "Hg9 mi
Weather by CustomWeather, © 2016

See weather overviewHow to use our weather pages